Location: Drouwen
(52.9559°N, 6.7974°E)
Time: 11:48:00
(UTC+00:00)

Meteor 1-11 Rocket - Pass Details

Date: 15 May 2026
Orbit: 829 x 915 km, 81.2° (Epoch: 6 June)

Event Time Altitude Azimuth Distance (km) Brightness Sun altitude
Rises 22:59:17 0° 345° (NNW) 3,463 8.6 -17.7°
Reaches altitude 10° 23:01:45 10° 345° (NNW) 2,509 7.4 -17.8°
Maximum altitude 23:07:26 78° 260° (W) 870 3.7 -17.8°
Enters shadow 23:10:12 31° 178° (S) 1,439 4.3 -17.9°
